Theta_e
308 309 308 308 308 308 307 307 307 307 307 308 308 308 309 309 309 310 310 310 311 310 311 311 311 311 311 311 312 313 314 314 316 317 318 318 315 315 315 314 314 314 315 315 315 315 315 316 316 315 317 318 318 320 320 317 315 321 326 323 320 320 318 318 318 318 320 319 317 318 317 318 317 317 317 316 316 316 317 317 317 317 316 316 315 314 314 314
307 307 307 307 307 307 307 307 307 308 308 308 308 309 309 309 309 310 310 310 311 311 311 311 311 311 311 312 312 313 314 314 318 318 316 315 314 314 314 314 315 315 316 316 316 315 315 316 316 315 316 318 319 319 321 321 317 321 324 321 320 320 317 317 317 317 318 318 318 318 317 317 317 317 317 316 316 317 317 317 316 316 316 315 315 314 314 314
307 307 307 307 307 307 308 308 308 308 308 308 308 309 309 309 310 310 310 310 311 311 311 311 311 311 311 312 312 314 314 314 319 318 314 314 314 314 314 314 314 314 315 316 317 316 315 315 315 316 316 317 318 318 320 321 320 320 321 322 320 318 317 316 317 317 317 318 318 318 317 316 316 317 317 316 316 317 317 317 316 316 316 316 316 315 314 314
308 308 308 308 308 308 308 308 308 309 308 309 309 309 309 310 310 310 310 310 311 311 311 310 310 311 311 311 312 314 313 316 320 317 314 314 314 314 314 314 314 314 314 315 317 317 315 316 316 316 317 317 318 317 318 319 319 319 319 320 318 316 317 317 317 317 317 317 317 318 317 316 317 317 316 316 317 317 317 316 316 316 315 315 314 314 313 312
308 308 308 308 308 308 308 308 308 309 309 309 309 309 310 309 310 310 310 310 311 310 310 310 310 311 311 312 313 313 315 319 319 315 314 314 314 314 313 314 314 313 315 316 318 318 317 316 316 317 318 318 319 318 318 318 317 318 319 319 318 317 318 317 317 317 316 316 316 317 317 317 317 317 317 316 316 317 317 316 315 314 313 313 312 312 312 312
309 308 308 308 309 308 309 308 309 309 309 309 309 309 309 310 310 310 310 310 310 310 310 310 310 310 311 312 313 314 318 320 318 314 314 314 314 315 315 316 315 315 317 318 318 318 318 317 316 318 319 319 319 318 318 318 316 318 319 318 318 318 317 318 318 317 316 316 316 317 317 317 317 316 317 316 317 317 317 316 315 314 313 312 311 311 311 312
310 309 309 308 309 309 309 309 309 309 309 309 309 309 309 310 310 310 310 310 310 310 310 310 310 311 312 312 314 318 320 320 319 316 315 314 316 317 318 318 318 318 318 318 318 318 318 318 317 318 319 319 319 317 317 317 317 318 319 318 318 318 317 318 318 317 316 316 317 317 316 316 316 316 317 317 317 317 316 315 314 313 312 312 311 311 311 312
312 311 310 309 309 308 309 309 309 309 309 309 309 309 309 309 310 310 310 310 310 310 310 311 311 311 313 313 317 319 320 321 321 319 317 317 318 319 319 319 319 318 318 318 318 318 318 318 318 317 318 318 317 317 317 317 317 318 318 318 318 318 317 317 317 317 316 316 316 316 316 316 316 316 316 316 317 316 315 314 313 312 312 311 311 311 312 312
311 312 311 311 310 309 309 308 309 309 309 309 309 309 309 309 310 310 310 310 310 310 310 311 312 313 313 315 319 320 321 322 321 320 319 319 319 319 318 318 318 318 318 318 319 319 318 318 318 317 318 318 317 317 317 317 318 318 317 317 317 317 317 317 317 317 316 316 316 316 316 316 316 316 316 316 316 315 314 313 312 312 312 311 311 311 312 312
311 311 311 311 311 311 310 309 309 308 309 309 309 309 309 309 309 309 309 309 310 310 311 312 313 315 314 317 320 320 321 321 319 319 318 318 318 318 318 318 317 318 318 318 318 318 317 317 317 317 317 318 318 317 316 317 317 316 316 316 316 317 317 317 317 317 317 317 316 316 316 316 316 316 317 316 315 315 313 312 312 312 312 311 311 311 311 312
310 310 311 311 311 311 311 310 309 309 309 308 309 309 309 309 309 309 309 309 310 311 312 314 315 316 316 318 320 320 321 320 319 319 318 318 318 317 317 318 318 318 318 318 318 317 317 317 317 317 317 317 317 317 316 316 316 316 316 316 317 317 317 317 317 317 317 317 317 316 316 316 315 315 316 315 314 313 313 312 312 313 312 311 311 311 311 311
309 309 310 310 311 311 311 311 310 310 309 309 308 308 309 309 309 309 309 310 311 312 314 315 316 317 317 318 319 319 320 320 319 319 318 318 317 317 317 317 318 318 318 318 318 318 317 317 316 317 317 317 317 317 316 316 316 316 316 316 318 318 319 318 317 318 318 317 316 316 316 317 315 315 315 314 314 312 313 313 312 312 312 311 311 311 311 311
308 308 309 310 310 311 311 311 310 310 309 309 308 308 308 309 309 309 310 311 313 314 315 317 318 318 318 318 319 319 320 320 319 319 318 317 317 317 317 317 317 317 318 318 318 318 318 317 317 317 316 317 318 317 316 316 316 316 317 317 318 320 321 320 318 317 317 316 315 315 319 321 317 314 313 313 313 312 313 313 312 312 311 311 311 311 312 312
307 307 308 309 309 310 310 310 310 309 309 309 308 308 308 309 309 310 312 313 314 316 317 318 318 318 317 318 319 319 319 319 318 318 318 317 317 317 317 317 317 318 318 318 318 318 317 317 316 317 316 316 317 316 317 317 316 317 318 319 319 321 321 318 317 317 316 316 315 315 320 322 316 313 313 313 312 313 314 313 313 313 312 311 311 311 311 311
306 307 307 308 308 309 309 309 309 308 308 308 308 308 308 309 310 312 314 315 316 317 318 318 317 318 318 319 319 318 318 318 318 318 318 317 317 317 318 318 318 318 318 318 318 317 317 316 316 317 317 316 316 317 319 319 319 318 320 322 322 322 321 317 316 317 317 316 314 316 320 321 316 314 313 312 312 313 314 314 313 313 312 312 311 311 311 310
306 306 306 307 307 307 308 308 308 308 307 307 308 309 310 311 313 314 315 316 317 318 318 318 317 317 318 319 319 319 319 318 318 318 317 317 317 318 318 318 318 318 318 318 317 317 316 316 317 317 316 316 317 319 321 322 322 321 321 323 324 323 322 319 316 317 318 316 315 316 319 321 317 314 313 312 312 313 315 315 314 313 312 312 311 310 310 310
306 306 306 306 306 306 307 307 307 307 307 309 310 311 313 314 315 315 316 317 317 317 317 317 318 318 317 318 318 318 319 318 318 318 318 317 317 318 318 318 318 318 317 317 316 316 316 317 317 318 318 318 319 320 323 324 325 324 322 322 324 324 323 321 318 317 317 317 316 317 318 320 318 314 313 313 312 313 314 315 314 313 312 312 311 310 310 309
306 306 306 306 306 306 306 307 307 308 309 311 313 314 315 315 315 316 316 317 316 316 316 315 318 319 319 319 319 319 319 318 318 318 318 318 318 317 317 317 317 317 317 316 317 316 317 317 317 319 320 319 319 321 324 325 325 325 324 323 323 324 324 323 321 317 317 318 318 319 318 319 320 316 313 313 313 313 314 314 314 313 312 312 311 310 310 309
307 307 307 307 307 307 308 309 310 311 313 314 315 315 315 315 315 316 315 316 316 318 318 317 317 318 320 320 319 319 319 319 319 318 318 319 318 318 317 317 317 317 317 318 319 317 317 318 319 322 323 321 320 320 322 324 324 323 323 323 323 324 323 323 321 317 316 318 318 320 320 319 321 319 315 313 313 314 313 314 314 313 312 311 311 310 309 308
307 308 308 308 309 310 311 312 313 314 315 315 315 315 316 317 319 319 317 316 317 317 319 320 319 318 320 321 320 319 319 319 319 319 319 319 319 318 317 317 317 317 318 321 321 317 318 321 323 323 322 322 322 321 321 321 322 322 322 323 323 324 323 322 321 316 316 319 319 320 321 320 321 321 317 313 313 314 314 314 313 313 312 311 310 309 309 308
309 309 309 310 312 313 314 314 315 315 315 316 315 316 318 321 322 322 320 319 319 318 318 319 320 320 320 320 321 320 319 319 319 319 319 319 318 318 318 317 318 319 319 321 320 317 319 322 323 322 322 322 322 322 321 321 322 322 322 323 323 324 323 322 321 316 315 320 320 320 321 320 320 321 319 314 313 313 313 314 313 312 312 310 310 309 308 308
310 311 312 312 313 314 315 315 315 316 315 315 315 316 318 320 320 320 319 319 320 319 319 318 318 319 320 321 320 320 320 319 318 319 319 318 318 318 318 318 319 320 321 321 321 320 322 322 321 321 321 322 322 321 320 321 322 322 323 323 324 324 323 323 321 316 316 319 320 320 320 320 320 320 319 314 313 314 313 313 313 313 311 310 310 309 308 307
312 312 312 313 314 314 315 316 316 315 315 315 316 315 317 318 318 318 318 317 318 319 319 319 318 318 319 320 319 319 320 320 319 319 319 318 318 318 318 318 319 321 322 321 322 323 324 323 321 321 322 322 321 320 320 321 321 323 323 323 324 323 324 325 321 318 316 317 319 320 319 319 318 319 319 315 313 313 312 313 313 312 311 310 309 308 307 307
313 313 313 315 317 316 315 315 315 315 315 315 315 315 316 317 317 316 316 317 318 318 319 320 319 319 320 319 319 319 319 320 320 320 320 318 318 318 318 318 319 321 321 321 321 323 324 322 321 321 322 322 321 322 322 321 322 324 324 323 323 323 324 325 323 320 319 319 319 319 321 322 320 321 320 314 312 311 310 311 311 311 310 309 309 308 307 306
314 314 314 316 317 316 316 316 315 315 315 315 315 315 315 315 315 315 317 319 320 320 321 321 321 321 321 320 319 319 319 319 320 320 320 319 319 319 319 319 320 320 321 321 321 321 322 321 321 323 322 322 322 323 323 323 322 324 325 324 323 323 323 324 325 324 323 324 321 319 325 328 323 323 321 315 312 312 310 309 310 309 309 309 308 307 306 306
314 315 315 315 315 316 317 316 315 314 314 315 315 314 314 314 315 315 318 321 322 322 323 323 323 322 321 321 320 320 320 320 320 321 321 320 319 319 319 319 319 320 321 321 321 321 321 320 321 324 323 324 324 323 324 324 322 323 326 326 324 323 323 324 324 324 326 326 321 319 325 329 324 322 321 316 314 313 310 309 309 309 308 308 307 307 306 306
314 314 315 314 314 317 318 316 315 314 313 315 315 314 314 315 316 317 320 324 324 324 323 322 323 322 321 321 320 320 322 320 319 320 319 319 319 318 319 319 319 320 319 321 324 323 320 320 322 324 324 325 324 322 324 324 323 325 324 325 325 322 323 324 323 325 326 324 321 320 323 326 324 323 321 317 315 314 311 310 310 308 308 307 306 306 305 305
315 314 315 315 315 315 317 316 316 314 314 316 315 313 314 316 317 318 322 326 326 324 322 320 319 319 319 321 321 320 319 319 320 319 317 318 318 317 318 319 320 319 318 321 325 323 320 321 324 324 324 324 323 322 325 324 323 324 322 322 323 322 322 323 323 325 324 322 324 323 322 325 326 324 321 318 317 316 313 311 310 308 307 307 306 306 305 304
315 315 315 317 317 316 316 316 316 315 315 315 314 313 315 317 318 320 322 325 326 322 320 318 317 317 319 320 320 319 316 316 317 317 316 317 317 316 317 318 319 320 319 320 324 323 319 318 320 322 323 323 322 322 325 326 323 321 321 321 321 321 321 321 323 323 322 323 324 323 323 325 328 326 321 319 320 319 316 313 310 308 307 307 306 305 304 304
317 316 316 317 318 317 316 315 315 316 315 314 314 315 316 319 320 322 323 324 325 322 317 316 317 317 318 319 319 317 315 314 314 314 315 316 316 316 316 317 318 320 322 321 322 320 316 314 315 319 320 319 318 317 318 322 321 318 320 322 320 320 320 320 321 321 321 323 323 322 323 323 328 330 323 320 321 320 319 314 310 309 308 307 306 305 304 303
319 317 316 316 317 316 315 315 314 315 315 315 316 316 318 322 322 324 325 323 321 321 316 315 318 318 318 320 321 318 315 315 314 314 315 315 315 315 316 319 319 320 323 322 322 318 316 316 316 317 316 315 317 317 314 315 317 318 321 322 321 320 319 320 320 319 322 324 322 321 322 322 326 329 322 317 318 318 317 314 311 309 307 306 306 305 304 303
323 319 317 316 316 315 316 317 314 314 316 317 317 318 321 324 324 325 325 321 321 321 318 318 318 318 319 321 321 319 317 316 315 315 316 316 316 316 317 320 320 322 323 321 322 321 320 319 318 317 315 315 319 320 316 315 316 320 322 322 324 323 321 322 322 321 322 322 318 318 322 324 324 323 319 316 315 315 315 313 311 309 307 306 305 304 303 303
324 321 319 317 316 316 316 317 315 315 317 318 318 318 322 324 324 325 324 323 322 321 319 319 318 318 320 321 321 319 318 318 315 316 317 317 317 317 318 319 320 323 325 322 322 323 322 321 319 318 316 315 318 320 319 318 317 319 320 321 324 324 323 324 324 323 324 321 317 316 320 323 322 320 319 317 314 313 313 312 311 309 307 306 305 304 303 303
324 323 321 319 318 319 319 319 316 315 316 318 318 320 322 323 324 325 324 323 321 318 318 319 319 320 320 321 321 319 319 319 316 316 318 318 319 319 318 319 320 321 323 322 323 323 324 324 321 318 317 316 317 318 319 319 316 317 319 320 323 324 325 326 325 326 325 320 315 315 320 324 323 320 316 312 310 310 311 311 310 309 308 306 305 304 303 303
323 324 323 321 321 321 321 321 318 315 317 318 318 321 322 322 323 325 324 322 320 318 318 319 319 321 321 322 320 318 319 320 317 317 319 319 319 320 319 318 319 320 321 323 324 323 323 326 321 317 317 316 317 318 318 318 318 317 318 320 322 322 324 325 323 321 321 320 317 316 320 322 319 315 311 308 308 308 309 310 309 308 307 306 305 303 303 303
322 324 323 322 322 321 321 322 319 316 317 318 319 321 321 321 323 324 324 322 319 318 318 320 320 321 322 322 320 318 319 319 319 318 319 319 319 320 320 319 318 320 321 322 324 324 325 324 319 316 316 314 315 318 318 319 320 319 319 320 321 320 320 322 322 318 318 322 321 318 320 319 316 315 311 309 310 308 308 309 308 308 307 305 304 303 303 304
322 323 322 321 321 321 320 320 319 316 317 319 320 320 320 321 322 323 323 321 319 318 319 320 321 320 321 321 319 319 318 319 319 319 319 320 319 320 320 320 319 319 320 320 323 325 326 323 317 316 318 314 311 314 316 316 317 320 321 320 320 321 320 320 322 321 321 323 322 319 320 321 320 319 313 310 312 311 308 308 308 307 306 305 304 304 304 304
322 321 321 321 321 320 320 319 318 316 317 319 320 320 320 321 321 322 321 319 318 319 320 321 322 320 320 321 320 318 317 319 319 319 320 320 320 320 319 320 320 319 319 319 321 323 323 323 317 315 317 314 310 314 318 315 314 316 318 317 319 323 322 320 321 322 323 323 323 323 322 321 321 319 315 313 314 312 309 308 308 308 307 306 305 304 304 304
322 320 320 322 321 320 320 319 317 316 318 320 319 319 320 320 320 320 320 319 318 320 321 321 322 321 320 321 320 318 316 318 319 318 319 320 320 320 319 320 322 320 318 319 320 320 320 323 320 314 314 314 312 316 319 318 315 314 315 316 318 320 321 322 321 322 324 323 324 325 324 323 322 319 316 315 314 311 309 309 308 307 307 307 306 305 305 304
321 319 319 321 321 321 320 318 316 316 318 319 317 317 318 319 319 319 320 319 318 320 322 323 323 322 321 321 320 319 316 318 319 317 318 319 320 319 318 319 321 320 319 318 320 320 319 321 321 315 313 314 315 316 317 318 317 315 316 318 319 318 318 320 321 320 322 323 324 324 324 323 320 317 315 314 313 312 310 309 309 307 307 308 307 307 307 307
319 319 319 320 321 321 319 316 315 316 318 319 317 316 317 319 320 320 319 319 319 319 321 323 323 322 322 322 321 319 317 317 317 316 316 317 319 320 318 317 319 320 319 318 319 320 318 319 320 315 313 315 316 316 315 317 318 316 316 317 318 318 318 320 321 320 320 323 324 322 323 323 318 314 315 317 316 314 310 309 309 308 308 308 308 308 308 308
318 318 319 319 320 320 317 315 316 316 317 317 316 316 317 319 320 320 319 319 319 319 319 322 323 323 323 322 321 320 318 317 317 316 316 316 317 320 317 314 317 318 316 317 319 317 316 318 320 317 314 315 315 314 313 313 317 318 316 316 318 318 318 320 321 321 321 322 321 320 322 324 317 311 313 314 313 311 311 310 309 309 309 309 308 309 309 309
317 318 317 317 319 319 317 316 316 316 317 317 316 317 317 318 320 320 319 318 319 319 319 320 322 323 323 322 322 321 319 318 317 316 317 316 316 317 314 312 315 316 315 317 318 316 316 318 319 318 317 315 313 313 312 312 315 318 318 318 319 317 317 319 320 320 321 322 321 320 321 321 315 310 308 307 306 308 311 312 311 310 310 309 309 309 308 308
316 316 316 316 318 318 317 317 316 315 316 317 316 317 318 318 319 320 319 318 318 319 319 319 320 321 322 322 322 322 320 319 319 317 317 319 317 313 310 311 314 316 316 317 318 317 317 319 320 319 319 318 316 315 315 314 314 316 317 317 317 317 319 320 318 318 320 322 323 322 321 320 316 312 309 308 308 308 309 311 311 310 310 309 309 309 309 308
316 315 314 315 316 316 316 317 317 316 316 317 317 318 318 318 318 319 319 318 318 319 319 319 319 319 321 321 321 321 320 320 320 319 318 320 317 310 308 310 313 314 314 315 316 316 318 320 320 320 321 321 320 319 317 316 314 314 316 317 317 318 319 319 318 318 320 321 321 320 320 319 315 311 311 312 311 310 308 309 310 310 309 309 309 308 308 307
316 316 315 314 314 314 315 316 316 317 318 317 317 318 318 318 317 317 318 318 318 318 318 318 319 319 320 320 320 321 320 319 320 320 318 319 317 311 307 308 311 312 312 312 314 315 318 319 318 319 320 320 320 320 318 317 315 314 315 316 317 318 319 318 317 318 320 320 319 318 318 318 314 312 313 314 313 313 310 307 308 309 309 309 308 308 307 307
315 317 315 314 314 313 313 314 315 317 317 316 317 317 317 317 317 317 318 318 317 317 317 318 318 319 320 319 319 320 320 319 320 319 318 317 315 309 306 307 309 309 310 310 312 316 318 317 317 318 318 318 318 318 317 317 316 314 315 316 316 317 318 319 317 318 320 320 318 318 318 318 316 313 314 316 315 314 311 307 307 309 308 308 308 307 307 307
312 315 314 314 315 315 314 314 315 316 317 315 315 316 316 316 316 317 317 317 317 317 317 318 318 318 319 319 319 319 319 319 319 318 318 317 315 310 308 308 308 308 309 310 311 315 317 316 316 316 315 316 318 317 317 318 317 315 315 315 316 316 317 318 317 317 320 319 317 318 320 320 316 313 315 317 314 312 311 309 309 309 308 308 308 308 307 307
310 311 311 312 314 314 314 314 314 315 317 316 316 316 316 316 316 316 316 317 318 317 317 318 317 317 318 318 318 318 319 319 319 317 317 316 315 312 311 312 310 307 309 311 310 311 314 315 315 315 315 316 318 318 316 316 317 318 316 315 315 316 315 316 316 316 317 317 317 317 318 319 316 314 314 314 311 310 310 310 310 309 309 309 308 308 308 308
308 309 309 309 310 309 310 313 314 314 316 316 317 317 316 316 317 317 316 316 317 317 317 317 317 317 316 316 317 318 318 318 319 318 316 316 314 313 313 315 313 308 308 311 311 310 313 315 315 315 316 316 317 317 315 314 315 317 318 317 316 316 315 315 315 315 315 316 316 315 316 316 314 313 313 311 311 311 310 310 309 309 309 309 308 308 308 308
306 307 307 308 309 309 309 312 314 315 315 316 316 317 317 317 317 317 316 316 316 317 316 317 317 317 316 316 317 318 317 317 318 316 315 315 314 313 314 313 312 310 308 310 312 311 312 314 314 315 316 316 316 316 315 313 313 314 316 316 315 315 316 315 315 314 314 315 315 315 315 315 313 312 311 310 310 309 309 309 309 309 309 308 307 308 308 308
304 305 305 305 307 308 309 310 312 315 315 315 315 316 316 317 317 317 317 316 314 315 315 316 317 317 316 316 316 317 317 316 316 313 312 313 313 312 312 310 310 311 310 310 311 311 311 312 313 314 317 316 314 314 313 312 313 315 315 315 314 314 315 315 315 315 314 314 314 314 314 314 312 310 311 312 310 308 308 309 309 309 308 308 308 308 307 307
Wind_Speed
12 11 11 11 11 11 11 11 11 10 10 10 10 9 9 9 8 7 6 4 3 1 1 2 3 3 3 4 5 6 9 11 8 7 5 5 4 3 3 4 7 7 7 6 5 6 6 5 4 3 3 3 3 4 4 5 5 3 0 1 2 2 3 3 3 4 4 5 4 5 3 4 2 3 1 2 5 5 6 5 7 7 4 2 4 6 8 8
12 12 11 11 11 11 11 11 10 10 10 9 9 9 9 8 7 6 5 4 3 2 2 3 3 3 4 4 6 7 9 9 3 3 6 3 1 5 8 9 9 8 8 8 7 5 4 2 3 3 3 2 1 2 2 4 5 2 1 1 2 3 4 4 7 7 3 5 6 5 3 3 2 2 2 3 5 5 6 7 10 8 3 1 4 6 7 10
11 11 11 12 11 11 11 11 10 10 9 9 9 9 8 8 7 6 5 3 3 2 3 3 3 3 4 4 7 8 10 9 1 1 4 4 7 11 12 10 9 8 8 9 9 4 2 2 2 3 4 1 2 1 1 2 4 2 2 2 3 2 5 7 7 8 7 5 4 4 3 3 4 3 2 3 6 6 2 1 8 10 6 1 6 7 9 12
11 11 11 11 11 11 11 11 10 10 9 9 9 8 8 7 7 6 5 4 4 3 3 3 3 3 4 5 7 9 13 9 2 3 0 6 10 11 10 7 5 6 7 8 8 6 4 2 3 3 5 2 3 1 1 2 3 3 3 2 3 2 3 6 6 8 6 4 3 2 1 4 3 2 3 3 5 3 3 5 5 7 5 2 6 9 10 10
11 11 11 11 11 11 11 11 10 10 9 9 9 9 8 7 7 6 5 5 4 4 4 4 3 4 5 6 8 10 12 5 4 3 3 6 7 7 4 2 3 5 7 7 7 6 5 2 4 4 5 2 4 1 2 4 2 3 2 5 5 4 2 6 6 6 4 1 1 1 2 1 2 3 5 5 4 2 3 1 0 0 3 5 7 8 7 4
11 11 11 11 11 11 11 11 11 11 10 10 10 9 9 8 8 7 6 5 5 4 4 4 4 4 5 6 8 10 8 2 2 1 4 5 4 1 2 5 6 7 8 7 6 6 5 2 4 4 5 2 1 2 3 2 2 2 1 6 5 3 2 5 6 4 3 2 3 3 3 2 2 6 9 9 7 5 4 5 5 8 9 7 5 4 3 2
11 11 11 11 11 12 12 12 12 12 12 11 11 11 10 9 8 7 6 6 5 5 5 4 4 4 5 7 8 7 5 2 3 2 4 4 4 6 7 7 8 8 7 5 4 5 4 3 5 4 4 3 2 4 3 1 1 2 1 5 6 2 1 2 4 4 3 4 6 3 3 5 6 6 6 7 7 7 8 8 9 10 6 3 2 2 2 3
12 12 13 13 13 13 13 13 13 13 13 12 12 11 11 10 9 8 7 6 6 5 5 4 5 4 6 7 6 7 5 4 5 3 5 8 9 9 8 7 7 7 5 3 1 3 3 4 5 4 4 2 3 2 2 2 4 4 1 4 4 1 3 3 4 4 5 6 7 6 6 9 10 8 4 5 7 9 9 8 8 5 1 2 2 3 2 3
13 14 14 14 14 14 14 14 14 14 13 13 12 12 11 10 9 8 7 7 6 6 5 5 5 5 6 5 4 6 4 3 3 4 6 8 8 7 7 7 6 5 4 4 2 2 2 3 3 3 4 4 4 2 2 2 2 1 4 4 2 3 4 6 7 7 8 9 8 6 8 11 11 9 4 6 9 9 8 6 3 2 3 2 2 2 1 1
15 15 16 16 16 15 15 15 14 14 13 13 12 12 11 10 9 8 8 7 7 6 5 5 5 5 6 4 3 4 2 3 4 4 5 6 6 6 6 5 5 2 2 2 2 3 2 2 2 2 4 4 3 1 2 1 1 4 6 6 7 9 9 8 9 10 10 9 9 7 7 10 7 6 3 6 10 8 6 4 4 4 3 2 1 1 0 1
16 16 17 17 17 17 16 16 15 14 14 13 12 12 11 10 9 9 8 8 7 6 6 5 6 6 6 3 3 4 4 5 5 4 5 6 6 6 5 4 4 2 2 1 1 1 2 2 1 2 3 3 2 0 1 1 2 4 6 7 10 13 13 13 11 11 9 5 9 9 8 8 6 4 3 8 10 7 6 6 7 6 4 2 1 1 2 3
17 18 18 18 18 18 17 16 16 15 14 13 13 12 11 11 10 9 9 8 7 7 6 6 6 6 6 6 8 9 8 9 9 9 9 8 8 7 6 6 5 4 3 1 3 4 3 2 2 2 2 3 3 1 1 1 1 4 4 4 7 9 10 15 14 13 10 4 6 6 5 7 6 4 5 9 10 9 8 7 7 7 5 4 3 3 3 4
18 18 19 19 19 18 18 17 17 16 15 14 14 13 12 11 10 10 9 8 7 7 6 6 7 7 7 6 8 9 10 12 12 12 12 10 10 9 9 9 7 7 6 5 6 6 4 3 2 2 3 4 3 1 1 0 1 4 4 3 4 6 5 9 11 12 9 5 6 5 2 4 5 8 9 9 11 12 10 8 8 7 6 5 4 4 5 5
19 19 19 19 19 19 19 18 18 16 15 15 14 13 13 11 11 10 9 8 8 7 7 7 7 7 7 6 8 10 11 12 12 13 13 11 11 11 11 10 9 8 8 8 8 6 4 3 3 3 4 4 2 1 2 2 4 3 4 3 2 2 2 1 8 11 8 5 9 6 2 3 4 8 10 9 11 13 11 10 9 8 6 5 4 4 6 6
19 19 19 19 19 19 19 19 18 17 15 14 14 13 12 12 11 10 9 8 8 8 7 7 7 6 6 7 9 11 12 13 15 16 14 12 12 11 11 10 8 7 6 6 6 5 4 4 4 3 2 3 1 2 3 3 4 3 2 3 2 3 2 2 7 10 4 3 10 6 2 2 4 8 10 11 12 12 12 12 11 9 8 6 4 3 5 6
19 19 19 19 19 19 19 18 17 16 15 14 13 13 12 11 10 10 10 9 8 8 7 6 6 5 5 7 9 10 11 13 14 14 13 13 11 9 11 9 6 6 5 5 5 4 5 4 3 3 2 2 2 2 3 3 3 3 4 3 3 4 3 3 3 5 2 3 7 6 3 2 3 9 12 12 15 14 13 13 13 11 9 7 6 5 5 5
19 19 19 19 18 18 18 17 17 16 15 13 13 12 11 11 10 10 10 9 9 8 6 5 4 5 7 8 9 10 13 13 12 11 10 11 11 11 10 5 4 5 4 4 5 4 5 5 3 3 3 3 3 3 1 3 4 3 4 3 5 5 4 2 0 4 5 3 4 5 5 5 3 11 15 16 17 17 15 15 15 12 10 9 8 6 5 5
20 19 18 18 18 17 17 16 16 15 13 13 12 11 10 10 10 10 10 10 8 5 6 7 5 2 7 12 11 10 12 11 9 10 9 10 11 10 7 3 3 3 4 4 5 6 5 5 3 2 3 3 4 4 3 4 4 3 2 2 4 4 4 3 0 5 7 2 3 4 5 7 5 9 16 18 18 18 16 15 15 13 11 10 8 7 7 8
21 19 18 18 17 16 16 16 16 14 13 12 11 11 10 9 8 10 11 10 8 5 3 7 11 4 2 7 11 10 11 9 7 9 10 11 10 9 8 5 5 7 6 4 4 8 7 3 3 2 3 5 5 6 6 6 6 5 2 1 3 3 4 5 1 5 5 2 4 6 5 7 7 5 11 17 18 17 14 12 14 13 12 11 9 9 8 9
21 19 19 18 17 16 16 16 15 14 14 13 12 10 7 6 5 6 10 14 15 14 8 6 10 9 4 3 8 10 9 7 7 8 11 11 10 10 10 7 7 6 4 4 4 7 7 3 3 4 5 6 7 9 9 9 8 5 2 2 4 4 5 6 2 4 4 1 4 5 5 7 8 8 8 17 17 14 14 12 13 13 11 11 9 9 9 10
21 20 19 18 18 17 17 17 16 16 15 13 13 10 5 5 4 2 6 11 15 17 17 13 11 12 10 8 8 8 7 6 7 9 10 11 11 9 10 9 7 4 7 7 4 3 4 4 5 7 7 8 6 5 7 8 8 6 2 3 5 3 5 6 2 4 4 2 3 4 6 9 8 8 6 15 14 11 15 13 12 12 11 11 10 9 10 11
22 21 20 19 18 18 18 17 17 16 15 14 15 14 9 8 8 4 3 6 10 12 16 17 16 16 15 13 11 9 8 7 8 11 11 14 14 10 11 11 5 3 7 7 4 3 3 5 7 9 8 8 5 2 2 3 3 4 2 3 4 3 4 6 1 4 3 1 3 4 6 8 8 10 8 13 13 8 11 11 10 12 12 11 10 10 10 9
23 22 21 18 17 17 18 16 16 17 16 16 16 16 13 9 8 8 5 6 10 14 17 19 20 22 19 17 17 17 13 10 9 14 15 17 17 14 12 10 6 5 6 6 5 4 5 4 8 13 10 6 5 2 1 3 3 3 3 3 4 3 3 4 1 3 3 2 3 5 6 7 10 11 6 6 10 8 8 9 9 11 11 10 10 10 9 8
24 24 22 18 17 18 16 15 17 17 16 17 17 17 16 10 8 7 6 5 8 11 18 21 21 24 23 20 21 21 19 15 13 15 19 20 18 14 11 10 8 6 6 8 9 8 8 4 3 9 9 5 5 4 3 3 3 5 6 6 4 4 5 5 2 0 2 2 4 4 5 6 8 8 3 4 7 8 7 8 8 10 11 11 12 11 9 8
24 24 22 21 20 16 13 16 17 16 17 18 17 17 16 11 7 4 3 5 6 6 11 16 18 20 22 21 19 18 16 17 16 14 19 24 20 11 8 10 9 6 8 10 9 9 11 7 4 5 5 5 5 5 5 6 4 4 6 6 8 7 5 3 5 4 3 3 2 1 2 4 2 4 6 3 3 5 6 8 9 10 12 13 13 13 12 11
23 22 21 22 20 15 15 17 16 15 17 18 16 14 14 10 6 3 1 2 6 4 6 11 13 11 15 19 19 15 7 11 15 14 18 24 23 14 6 8 8 6 7 8 7 4 3 5 6 6 6 6 5 5 5 7 3 4 4 2 3 4 1 2 3 1 1 3 1 2 2 3 3 2 4 5 5 5 6 7 10 12 13 14 14 14 14 14
21 21 21 20 19 20 20 17 15 16 15 15 13 13 13 11 8 4 3 3 6 6 8 8 10 7 10 16 22 15 1 6 13 14 21 24 22 17 9 6 6 5 3 2 5 2 4 7 5 5 6 5 6 5 5 7 4 3 3 3 4 4 3 2 3 3 3 2 2 4 3 3 5 5 6 8 7 5 5 6 9 14 14 14 14 14 14 14
21 21 20 19 20 24 22 16 16 17 15 12 11 14 15 14 11 6 3 2 3 6 7 5 7 8 11 16 22 14 4 10 10 9 22 25 19 14 9 7 6 6 5 5 5 1 3 7 7 7 7 5 5 4 5 8 5 2 1 3 5 4 1 2 3 4 3 3 3 5 4 2 5 6 5 8 7 6 8 9 9 14 16 15 15 15 13 13
21 22 22 22 21 23 22 17 16 17 15 11 12 16 18 17 12 5 2 3 2 5 4 7 7 8 13 15 15 10 6 5 1 5 17 20 17 10 4 8 7 5 9 11 7 1 1 3 4 6 6 5 3 2 1 5 5 4 3 5 5 3 2 0 2 2 3 4 5 6 5 3 4 4 4 5 5 7 8 7 9 15 18 17 17 16 15 15
22 23 25 26 25 26 25 23 21 18 14 14 16 21 23 17 8 3 3 4 1 3 5 7 7 9 14 11 6 6 5 2 4 9 11 11 14 8 1 4 7 4 3 7 6 1 2 1 1 2 2 3 5 6 7 3 6 7 5 5 4 1 2 1 1 1 2 5 6 9 9 6 3 4 5 4 3 5 6 5 8 13 18 19 18 18 17 17
25 25 26 28 31 30 28 29 27 20 17 19 22 27 24 10 2 4 6 1 2 2 5 5 5 10 14 10 6 7 6 4 7 10 6 5 8 6 2 4 4 2 2 3 3 1 3 1 1 1 4 7 7 4 6 5 5 6 4 4 3 1 2 2 1 1 2 5 4 6 9 9 5 5 2 3 3 6 7 7 9 12 18 20 19 19 19 18
29 28 28 30 31 31 31 29 24 21 22 24 30 30 18 3 2 7 5 3 1 4 5 6 6 8 12 10 6 8 7 5 9 9 5 5 5 6 7 5 5 4 2 4 3 1 3 4 3 3 4 7 6 3 3 4 1 4 4 5 4 1 0 1 2 3 4 5 3 2 3 5 6 5 4 5 4 5 7 10 14 16 20 21 20 20 19 19
33 31 30 32 32 32 31 25 21 25 26 29 33 24 9 3 8 10 8 4 1 1 5 7 8 8 10 8 4 7 6 4 8 8 5 6 5 6 8 7 7 5 3 5 5 3 2 4 6 3 1 9 10 6 3 1 3 6 6 6 5 4 3 3 4 3 4 4 3 3 1 0 3 5 5 5 6 7 10 14 19 21 22 22 21 21 19 19
36 35 35 35 34 33 29 24 25 28 31 34 29 13 4 7 8 7 10 8 0 2 3 5 8 9 8 6 4 8 5 3 8 8 5 7 5 6 7 9 11 7 1 3 4 5 3 4 7 7 4 11 13 8 7 6 6 8 6 5 5 4 3 4 3 3 2 1 2 3 1 3 3 2 1 5 8 9 12 15 19 20 20 20 20 20 20 20
37 36 38 38 38 38 34 31 29 28 34 35 20 7 8 10 6 5 8 8 3 3 4 5 8 7 6 4 4 7 3 2 9 7 6 8 6 7 8 8 12 9 4 4 2 5 7 5 4 6 6 13 13 8 7 8 4 5 4 4 5 3 2 2 2 2 2 2 1 2 2 4 4 1 3 7 7 7 9 14 18 19 19 20 20 21 21 21
40 38 41 43 45 44 41 39 33 32 40 31 10 7 11 8 4 5 6 8 7 7 8 6 5 5 5 3 3 6 1 2 8 6 4 6 6 7 7 7 12 12 9 7 3 4 6 3 1 2 2 6 7 4 5 6 3 3 4 5 4 2 2 1 1 1 2 1 2 4 3 3 1 1 2 5 5 3 5 9 15 19 20 21 21 22 22 23
43 42 43 46 48 45 45 45 37 38 42 26 8 9 8 5 6 6 4 7 10 11 9 5 5 6 7 4 4 8 2 1 7 5 3 4 4 8 10 8 14 17 14 11 4 2 5 1 2 1 1 1 2 2 1 1 2 3 5 4 2 3 2 1 1 1 1 3 3 5 6 4 3 3 1 5 5 5 5 6 10 16 20 21 21 22 22 22
41 41 41 45 45 42 45 46 40 42 36 15 9 11 5 5 8 7 6 7 9 11 7 6 6 5 6 6 5 8 6 3 6 5 4 4 3 9 13 9 12 19 20 15 5 2 3 2 3 1 2 0 2 2 0 2 1 2 2 2 2 1 2 3 2 2 3 4 3 4 6 6 5 5 5 7 10 9 8 7 8 12 19 21 20 21 21 21
35 32 30 39 42 38 42 45 44 43 26 8 9 10 4 5 8 10 14 11 7 8 7 6 6 4 5 6 4 7 8 6 7 5 3 5 3 6 11 9 8 13 20 18 7 1 1 2 3 3 1 2 1 1 5 4 2 0 3 3 1 1 2 3 3 2 3 3 4 2 3 4 5 6 10 12 12 11 11 9 9 14 20 22 21 22 22 23
31 21 16 31 39 38 43 45 41 30 13 7 11 8 5 6 8 13 20 16 6 5 6 6 6 5 5 6 4 6 6 6 7 4 2 5 3 2 5 8 5 6 13 16 9 2 1 2 2 2 2 3 2 4 9 9 7 4 2 2 3 1 1 0 1 2 3 2 2 2 2 3 4 3 10 13 11 11 13 11 10 16 20 21 22 22 23 23
26 13 7 21 30 37 45 39 25 14 6 7 9 7 8 7 5 12 20 20 11 5 4 5 8 7 5 6 5 5 6 5 6 5 3 5 5 3 3 4 5 6 7 7 6 3 1 2 3 1 2 3 3 2 5 6 7 7 6 6 6 4 3 1 3 3 2 2 3 2 3 4 3 3 2 8 7 8 14 14 11 16 21 21 22 22 21 21
17 6 5 15 21 35 44 25 9 10 8 9 9 8 10 7 6 12 16 17 12 5 2 4 7 8 6 7 6 5 6 5 6 7 5 7 8 5 2 3 7 10 7 2 4 3 2 1 3 1 2 3 2 1 2 2 3 4 5 6 6 5 5 5 5 3 1 1 2 2 2 5 3 4 4 3 5 5 12 17 15 17 21 22 21 20 19 19
11 5 7 15 21 36 36 11 4 10 6 8 9 7 11 9 7 11 12 13 10 5 4 4 5 8 6 6 7 7 7 6 7 8 5 6 7 3 5 9 10 10 7 2 3 3 3 2 2 0 2 2 2 1 1 1 1 2 4 6 7 7 7 5 4 3 3 3 3 2 3 5 2 2 3 4 8 8 8 16 18 17 19 20 20 19 19 20
10 7 11 20 29 37 26 6 7 11 7 8 9 7 12 11 9 12 11 12 10 6 6 6 6 8 6 4 7 8 8 6 6 8 6 5 5 3 7 13 11 8 5 3 4 7 5 2 4 2 1 2 2 2 3 3 3 3 4 6 8 8 7 4 1 2 3 5 7 4 5 5 1 3 4 6 6 5 7 13 18 19 18 19 19 19 19 20
8 5 11 25 37 37 22 8 8 9 8 10 9 10 12 8 10 15 13 13 13 8 6 5 6 7 4 3 5 7 9 7 5 5 5 4 3 2 5 11 12 8 6 6 8 10 6 3 5 6 7 8 6 5 6 4 3 3 5 8 9 10 10 6 3 3 5 5 8 6 5 3 1 3 2 2 2 2 6 11 14 16 17 17 18 19 20 19
7 5 6 15 27 28 20 15 12 7 7 10 8 9 12 7 5 11 13 12 14 12 6 2 4 7 4 4 6 6 8 8 5 4 5 5 2 1 3 8 9 8 9 11 11 8 3 2 6 10 12 10 5 4 3 5 6 7 9 11 12 12 11 7 5 7 5 4 6 8 5 4 4 2 2 3 4 4 7 11 13 13 14 16 17 18 18 17
6 5 5 6 10 12 11 12 12 8 10 12 6 5 12 10 3 6 12 11 13 15 7 2 5 8 6 9 9 7 8 8 6 7 7 5 3 2 2 5 5 7 8 10 11 7 3 4 10 13 14 8 2 4 3 4 10 13 12 13 12 11 11 10 9 8 6 5 9 7 8 7 10 8 8 7 7 6 7 11 13 13 15 16 15 15 16 17
6 4 7 10 7 5 7 11 10 9 10 12 7 5 10 12 8 8 10 7 10 16 9 2 8 13 12 13 10 6 8 8 8 10 8 5 4 2 2 2 3 6 6 6 9 6 3 7 11 11 13 9 3 4 4 0 5 9 12 15 14 13 15 14 13 9 7 7 11 6 11 11 10 7 10 10 9 9 9 11 13 14 14 14 13 15 16 18
8 5 5 8 6 3 7 13 13 9 10 11 9 9 12 15 15 12 8 5 7 14 13 9 13 17 15 12 9 7 8 9 10 11 8 6 6 4 3 2 4 7 7 5 6 5 4 6 8 9 11 11 7 5 3 2 2 4 8 12 13 15 15 13 12 12 9 9 11 6 5 10 7 6 10 12 13 13 11 12 13 14 14 14 15 17 18 19
7 5 3 4 5 2 2 9 12 9 9 9 9 10 12 15 16 12 9 9 8 8 13 15 16 15 14 12 11 12 14 14 13 11 10 9 6 6 6 4 4 6 6 4 3 4 5 5 4 7 8 10 10 6 3 2 2 3 5 7 8 10 11 11 12 11 9 9 11 6 5 11 6 8 9 10 12 11 9 10 14 15 16 17 18 19 19 21
10 7 2 1 3 3 1 3 7 8 8 8 7 9 11 14 16 11 9 15 17 11 14 20 18 10 11 13 15 18 19 17 13 9 12 13 9 8 8 6 8 8 6 6 4 4 5 3 2 5 6 7 9 8 5 2 0 3 9 13 10 6 6 8 9 7 9 11 10 6 7 11 4 8 6 7 9 11 10 11 14 16 17 18 19 20 21 22
16 12 7 2 1 3 2 0 3 7 7 8 10 10 9 10 12 11 8 12 19 17 15 20 18 8 8 15 21 24 23 17 11 8 11 13 9 9 8 8 11 11 8 7 4 4 6 4 3 5 5 3 5 8 8 5 1 4 10 13 11 7 6 7 6 6 10 10 7 7 10 10 1 7 5 5 7 10 12 15 16 16 15 17 20 21 21 22
Wind_Direction
188 189 189 191 192 191 191 190 187 186 180 177 175 173 172 172 176 177 180 186 191 228 286 320 329 334 340 344 348 351 353 354 358 356 330 296 290 236 188 124 115 98 84 75 66 46 26 15 349 343 355 357 27 9 356 13 2 350 355 259 301 63 70 340 33 77 164 135 124 128 54 338 97 115 98 319 277 232 224 221 178 185 209 249 276 283 292 292
189 190 189 189 190 189 189 187 185 186 184 181 180 180 180 179 183 186 190 195 207 253 286 309 321 327 338 346 348 350 347 353 21 343 331 339 100 144 134 120 111 89 73 63 61 41 2 347 314 321 313 282 59 29 23 359 342 342 317 331 24 53 61 33 54 56 51 99 114 118 73 336 21 32 2 325 280 242 241 216 162 150 126 229 260 271 281 283
192 192 191 190 190 190 189 188 188 188 189 189 187 189 190 187 190 193 200 212 229 264 284 301 319 323 339 346 346 349 338 339 79 273 344 89 121 129 127 119 106 79 60 50 53 54 27 16 335 320 303 259 90 46 112 351 333 29 354 15 60 80 82 62 67 67 50 66 92 100 98 306 315 314 307 336 309 290 298 100 127 120 107 224 264 268 278 284
196 197 196 195 195 195 194 193 194 194 195 197 197 198 200 200 200 202 212 226 245 266 280 297 313 320 340 346 348 345 332 332 167 198 38 125 126 126 124 113 89 50 31 28 38 39 51 28 344 336 299 240 121 296 125 48 349 348 347 94 77 17 77 81 79 85 77 56 41 57 65 293 274 238 275 319 311 296 93 74 99 119 134 228 278 285 287 287
202 203 202 202 202 202 201 201 201 202 204 204 206 206 207 209 209 214 223 234 249 264 280 292 305 323 338 343 348 343 335 340 144 163 155 143 132 129 122 74 356 357 355 4 27 24 37 23 322 305 287 220 147 206 75 64 346 312 32 95 73 13 55 102 99 103 113 88 42 243 241 254 197 222 259 247 254 247 134 173 201 228 275 285 287 288 285 272
208 208 209 209 208 210 209 209 209 208 209 211 213 213 214 216 218 223 230 239 253 264 277 288 305 323 336 343 345 344 344 330 170 169 165 156 151 182 299 304 312 326 338 0 27 15 19 353 300 288 292 286 129 90 90 67 352 316 90 90 76 44 54 109 131 146 140 174 207 228 237 223 259 274 262 237 226 226 228 254 288 306 305 304 282 255 240 174
218 216 216 216 215 217 216 216 215 213 213 214 216 217 220 220 222 228 233 244 253 263 275 287 305 319 330 339 341 343 344 266 215 225 203 203 250 281 294 290 296 312 336 11 19 354 350 310 302 324 306 292 18 63 89 357 275 247 227 109 103 81 11 113 148 180 179 204 218 243 275 255 260 275 260 225 209 221 238 262 287 297 299 281 219 181 160 143
227 225 224 223 222 222 222 222 221 220 219 219 221 221 224 225 227 232 236 248 252 263 274 284 300 314 323 339 348 331 305 228 203 246 251 248 268 282 286 282 289 305 339 18 9 328 321 310 319 333 325 349 22 18 53 331 235 218 358 80 104 155 241 209 184 207 214 223 235 247 254 253 250 254 253 193 195 221 235 259 276 277 224 144 125 120 137 155
232 231 230 229 228 227 226 227 225 225 225 225 227 226 228 230 231 236 240 249 254 264 272 283 298 307 316 340 351 317 283 206 213 262 269 265 270 276 276 279 286 303 357 4 47 44 339 349 358 353 340 350 356 349 69 34 260 324 9 12 330 263 239 222 206 216 227 229 233 229 241 257 249 241 243 186 201 224 234 249 246 159 120 108 104 118 158 163
237 235 235 233 232 231 230 231 230 231 231 230 232 231 233 234 237 242 244 251 256 263 271 281 292 301 314 339 330 295 233 226 265 275 275 275 271 273 276 281 290 297 44 350 39 71 335 332 352 344 322 308 311 342 74 60 334 359 346 326 298 276 263 240 222 228 232 227 220 214 249 261 230 215 224 179 202 223 219 201 148 127 119 123 132 158 277 338
238 238 238 236 234 233 233 233 234 234 235 235 237 237 238 239 241 243 246 253 256 263 271 279 292 298 302 308 272 263 245 252 268 280 284 282 272 270 278 284 290 263 160 334 313 206 230 250 275 309 311 321 337 190 73 321 316 350 335 311 283 267 255 236 228 232 228 219 214 220 265 259 204 195 195 177 196 202 178 157 138 148 164 176 233 286 306 314
239 237 237 237 235 234 234 235 235 236 236 237 239 240 240 241 242 245 248 252 255 263 270 279 292 296 294 285 262 258 261 263 267 278 283 279 266 261 272 277 271 256 216 189 266 248 232 234 244 296 301 319 324 248 87 1 310 319 307 295 284 278 256 227 214 212 206 190 198 203 278 256 199 156 152 170 180 162 155 156 151 166 184 196 228 247 261 275
239 236 236 235 235 234 233 233 234 235 235 236 238 239 241 242 244 245 248 251 255 262 271 282 288 290 291 278 263 262 262 263 269 276 276 268 259 258 265 267 260 255 247 236 254 262 256 252 231 258 285 294 306 300 347 66 179 287 265 226 283 298 271 218 190 178 175 165 179 171 303 267 167 140 153 172 173 158 160 169 167 175 186 193 212 244 262 269
237 236 235 234 233 233 233 232 232 233 234 236 237 239 242 243 245 246 248 251 256 262 269 277 283 286 280 267 265 263 256 259 265 266 267 261 253 258 261 262 261 256 254 251 256 263 248 222 205 229 249 258 301 329 297 235 191 269 280 216 231 281 285 145 139 152 157 172 179 168 276 264 121 140 170 183 178 169 173 176 175 179 184 199 209 241 274 282
235 235 233 233 233 232 233 233 233 232 232 233 236 238 240 241 244 244 247 250 255 263 269 274 278 277 271 266 264 261 256 255 256 258 260 255 253 259 258 258 262 257 253 248 242 238 218 184 198 233 193 194 249 288 276 248 206 208 249 262 226 195 220 125 141 165 167 175 178 171 251 234 133 161 182 184 182 179 181 179 176 179 183 195 192 209 260 282
232 231 231 231 231 231 232 232 233 232 231 232 234 236 237 240 242 243 247 250 256 261 265 271 266 255 262 261 253 257 258 248 250 258 254 249 247 247 254 259 259 252 241 233 226 213 198 179 211 237 161 173 205 215 259 272 252 204 189 259 257 215 215 150 154 210 196 139 179 195 256 297 140 173 186 188 185 184 189 183 177 182 183 186 191 206 240 272
230 229 230 230 230 231 231 231 231 229 229 231 233 236 237 239 242 246 248 248 253 256 250 248 251 255 256 251 249 252 252 247 251 256 248 242 236 235 247 253 240 243 222 207 205 188 190 182 199 234 208 226 227 194 224 251 254 229 179 220 251 246 240 201 268 242 201 159 205 212 226 266 206 174 187 195 190 189 195 188 180 184 184 189 199 208 220 229
227 227 228 228 228 227 228 230 230 227 228 229 232 235 236 241 245 247 250 250 246 251 251 227 201 267 258 236 231 236 243 248 251 249 240 230 227 226 221 202 202 193 161 184 192 176 185 181 179 249 219 212 225 197 185 207 238 274 217 211 263 271 254 246 163 177 182 183 248 230 224 251 252 188 187 196 196 193 201 195 181 183 186 194 201 200 207 217
224 223 223 224 224 222 222 225 227 227 227 228 229 230 234 239 246 251 249 239 214 201 255 211 191 192 279 218 212 220 235 244 242 237 228 218 211 197 181 171 176 169 162 176 186 183 182 162 158 238 230 205 208 208 209 225 253 299 327 303 304 308 279 288 322 164 172 179 228 238 244 253 271 242 188 191 199 199 207 198 177 179 184 189 197 200 208 221
220 220 219 218 219 218 218 222 225 225 225 228 222 215 223 223 230 251 234 227 226 230 242 212 204 224 243 208 209 213 221 226 223 222 220 212 197 183 173 162 170 189 209 182 164 184 181 173 200 208 221 220 216 217 222 239 258 285 339 290 281 287 276 293 312 164 149 119 229 244 267 266 267 269 199 183 193 203 205 188 172 178 181 184 194 199 209 222
217 218 218 216 218 218 220 222 223 224 223 224 213 196 191 207 202 198 211 234 249 246 243 235 229 238 239 228 217 213 206 194 198 213 215 195 177 171 170 167 167 200 228 202 148 133 177 206 225 214 223 237 241 237 229 236 255 270 285 278 276 270 263 276 270 150 130 123 253 265 277 275 264 275 226 175 179 206 205 189 179 183 179 186 197 199 210 226
215 216 217 217 218 220 222 221 221 223 220 216 210 198 196 212 211 212 240 268 271 257 244 236 232 236 238 232 225 222 207 181 188 208 199 176 173 175 174 178 186 198 206 197 128 102 219 234 229 225 236 244 244 14 336 271 281 284 288 278 266 265 273 280 252 125 113 161 275 302 285 280 272 271 249 181 173 187 190 182 181 183 178 186 196 200 213 227
216 216 216 216 220 224 224 223 222 220 217 213 211 205 206 216 216 234 271 290 279 262 244 235 230 230 229 228 230 226 213 197 199 208 195 176 179 186 177 177 203 216 198 190 174 187 223 225 222 224 231 238 218 164 6 301 291 248 240 251 249 246 244 265 257 149 146 183 249 295 290 278 266 259 260 165 150 128 137 155 159 166 173 185 193 201 216 224
218 216 214 207 215 226 223 224 224 220 219 217 215 209 207 210 214 244 272 274 277 255 240 237 232 229 224 224 231 227 219 219 216 208 197 185 180 183 187 189 203 220 212 200 203 222 237 240 220 211 203 198 212 216 199 226 261 228 216 223 230 243 228 233 291 218 179 217 219 257 288 277 252 226 209 87 122 128 145 163 163 169 178 186 192 195 200 210
221 219 214 204 208 216 218 226 226 219 218 218 217 212 208 209 214 246 283 271 264 229 225 227 223 228 223 219 226 219 218 226 222 211 200 193 184 178 191 197 201 222 218 209 211 234 246 234 185 168 168 170 202 228 189 187 246 247 223 218 215 234 263 296 341 8 352 308 233 158 299 285 282 170 172 149 141 153 162 176 187 194 198 199 200 201 197 197
223 220 215 207 202 197 211 228 228 220 219 220 215 206 204 200 193 208 144 292 271 192 173 198 203 218 212 203 201 195 212 226 212 207 201 196 192 189 192 192 201 227 219 212 220 240 235 181 157 148 154 161 195 227 186 174 214 255 263 291 190 186 76 356 338 13 274 283 253 136 178 260 331 358 182 170 178 178 167 189 195 193 204 209 208 210 210 205
219 215 212 205 194 193 206 219 223 219 217 219 210 190 188 178 158 144 115 297 267 170 143 170 182 186 185 185 183 180 194 171 175 190 192 191 194 195 200 188 189 220 227 218 227 221 120 148 148 145 161 174 202 222 194 175 185 237 270 20 73 108 120 204 231 221 230 294 276 186 173 263 288 273 221 171 170 185 186 209 199 188 199 205 202 208 213 212
216 210 206 203 200 201 204 211 221 216 207 207 196 177 169 157 149 133 115 274 258 132 131 154 163 165 158 168 177 173 123 141 154 188 186 185 189 192 211 215 193 192 195 208 224 269 109 164 166 165 181 202 204 216 201 186 185 215 203 79 86 97 103 217 213 226 257 303 263 203 168 250 271 254 201 158 171 206 205 206 196 186 192 193 194 200 204 206
217 210 203 203 213 214 205 207 217 213 204 188 173 168 157 148 146 118 86 234 182 103 125 147 149 155 148 159 179 167 126 141 143 180 180 185 185 177 208 229 230 214 201 215 223 298 23 181 169 172 197 209 167 36 350 186 178 174 136 80 75 87 75 278 212 210 270 265 233 205 175 190 267 251 162 152 207 218 204 196 184 182 185 188 189 190 192 195
219 216 208 201 209 216 209 207 211 207 191 169 163 159 152 148 146 129 194 227 235 89 119 141 149 151 148 150 180 176 150 123 94 133 163 185 186 183 143 199 239 266 219 230 233 139 84 51 345 197 183 140 118 56 23 64 133 145 128 87 79 68 71 34 290 124 279 259 220 207 198 185 266 267 176 172 212 173 160 160 165 173 179 184 187 187 189 192
220 217 213 205 207 212 210 209 209 197 170 162 161 155 151 148 121 185 204 244 0 122 126 136 139 144 157 162 173 187 179 137 134 143 153 174 180 198 200 164 203 268 347 272 250 133 131 125 6 167 129 112 107 70 28 42 117 135 124 118 112 33 44 42 298 164 229 253 224 213 210 189 217 275 211 160 125 132 146 158 162 168 174 179 184 187 192 194
225 216 213 213 212 213 212 214 208 182 163 162 162 156 150 139 226 214 212 72 91 189 142 142 156 161 177 182 172 173 175 161 163 164 162 169 179 193 203 191 166 168 236 229 213 185 209 206 162 135 160 158 135 88 42 16 69 149 145 146 138 126 127 197 209 194 225 248 273 291 241 199 217 255 214 163 133 120 139 161 167 168 172 176 181 186 192 196
227 220 214 214 215 217 218 219 205 181 168 165 165 160 146 175 209 214 208 177 188 183 120 138 169 179 180 189 179 159 170 171 167 172 167 169 190 202 213 215 188 191 214 189 186 180 236 233 175 148 219 189 175 160 167 193 186 181 171 166 166 164 189 217 205 214 234 241 290 319 340 228 251 260 221 159 123 106 117 152 170 170 172 176 181 186 191 197
226 222 217 215 217 221 222 219 205 188 176 169 167 163 161 202 208 196 199 209 186 85 128 145 160 169 180 197 169 147 166 181 163 173 178 175 196 205 207 217 210 214 179 164 185 174 210 265 185 171 174 183 190 195 175 149 168 194 189 178 191 184 186 199 194 214 212 170 310 315 62 169 197 244 183 101 94 101 111 140 161 165 170 175 180 186 190 196
226 227 223 219 220 221 222 219 208 191 178 171 166 171 186 205 214 181 193 202 174 136 140 138 144 157 190 203 150 153 169 168 167 179 192 189 205 200 193 206 206 202 182 189 198 173 206 256 187 163 153 167 186 205 164 132 156 206 195 199 220 210 167 180 193 186 135 95 255 226 245 216 182 99 88 93 86 99 114 132 145 152 165 174 180 187 192 197
224 228 227 223 221 220 220 218 209 190 179 171 168 203 198 211 204 169 179 175 167 150 131 138 152 158 186 178 165 192 240 74 168 183 209 207 222 212 197 195 195 198 195 188 184 171 193 255 352 88 93 158 180 206 168 145 157 193 188 204 204 115 81 158 270 44 95 280 239 177 245 278 165 47 120 120 110 122 136 140 143 150 163 175 183 189 195 200
224 223 224 221 221 221 218 216 208 189 180 176 184 204 206 221 182 155 157 147 144 145 141 171 187 171 185 178 179 194 187 77 172 176 187 197 225 216 209 203 191 197 205 198 204 195 162 186 295 157 90 334 16 20 32 113 115 142 181 197 114 42 16 120 269 353 144 253 253 172 199 215 184 221 169 138 164 190 185 164 151 155 167 179 188 194 200 204
228 220 220 223 224 222 218 216 205 187 182 184 206 205 210 202 175 151 143 133 136 150 168 209 191 169 186 184 177 181 171 159 174 175 182 182 213 204 201 206 194 197 205 205 222 272 162 178 281 303 111 134 29 51 330 329 76 137 211 236 110 144 242 162 186 236 186 227 268 205 197 195 194 198 173 177 193 195 185 171 166 173 179 183 189 196 202 205
231 219 222 228 225 222 221 215 197 184 182 193 208 210 219 201 192 176 164 152 143 166 187 207 190 182 193 178 154 165 173 174 169 172 190 190 208 199 190 195 198 195 197 200 211 284 174 196 249 309 35 124 90 177 189 205 210 93 331 318 98 140 205 174 185 209 177 212 252 238 200 211 220 191 176 191 196 180 172 172 184 193 189 187 190 196 202 205
224 214 232 230 222 222 219 206 190 183 188 200 200 204 202 201 208 194 182 173 161 173 190 194 186 191 197 187 160 152 172 182 170 170 209 198 207 264 198 186 185 182 186 198 207 141 111 215 209 319 349 135 171 207 192 191 193 188 201 207 184 158 128 163 247 209 166 193 232 247 251 254 261 204 176 186 185 167 169 176 190 195 190 189 194 200 205 208
218 208 241 223 220 218 204 190 184 189 200 206 207 207 200 200 197 193 193 193 193 189 180 184 191 190 181 187 178 144 160 183 180 184 219 211 207 243 228 182 173 168 162 195 213 167 150 206 152 128 247 209 235 234 192 190 191 193 195 191 188 175 145 169 240 217 158 169 185 201 250 258 286 329 166 170 160 159 172 174 176 184 185 190 198 205 210 212
216 219 224 202 213 204 188 179 184 190 196 209 204 195 193 197 192 183 186 195 201 196 164 182 194 189 179 190 188 154 157 182 191 193 211 219 213 213 197 156 153 154 135 140 211 168 99 122 126 137 212 230 283 311 148 170 183 204 222 202 184 185 183 189 213 209 160 208 185 120 270 268 285 350 10 79 77 103 164 167 162 173 183 190 198 205 212 217
212 219 190 184 201 193 181 176 201 187 210 210 190 186 189 192 191 176 176 190 194 175 176 192 190 193 192 182 185 176 164 179 198 196 205 220 220 213 170 160 143 136 133 150 205 155 110 139 157 73 336 304 294 259 153 115 120 229 238 201 189 205 202 195 204 182 169 198 178 133 251 263 289 353 6 57 68 71 126 151 155 165 179 188 193 200 210 216
213 204 177 179 194 191 182 182 190 191 218 191 178 195 196 198 198 184 181 192 190 175 188 197 187 201 205 159 178 187 172 182 206 200 202 207 192 161 165 171 163 154 163 182 174 163 163 170 151 144 294 267 263 257 232 227 194 204 224 201 199 205 189 175 140 138 217 195 159 170 232 226 243 350 18 58 69 76 112 137 151 159 167 177 184 194 205 211
203 196 182 182 189 190 192 205 191 194 204 187 188 193 187 198 207 199 194 191 192 186 186 197 180 180 180 146 186 197 184 192 208 198 211 215 177 143 169 181 180 174 171 159 153 160 172 189 165 178 213 217 218 228 217 201 181 209 213 196 201 200 183 172 150 180 227 189 161 195 227 186 159 349 20 63 75 144 140 144 157 163 168 178 185 192 201 206
193 197 192 184 192 197 207 212 201 197 200 197 204 193 188 194 201 201 197 191 197 191 167 136 154 158 157 170 191 205 200 205 208 197 206 197 172 68 160 184 188 177 162 152 151 148 137 213 203 206 219 218 220 254 228 138 153 201 205 193 200 202 187 174 183 202 198 161 196 215 184 177 232 212 181 211 211 195 171 164 165 165 174 187 193 196 200 206
197 198 181 175 203 218 224 216 204 201 198 195 194 185 194 197 172 190 198 196 198 192 175 88 161 177 184 183 195 206 194 197 204 208 206 177 130 50 139 175 193 184 164 155 159 143 103 220 218 219 229 231 216 275 284 156 180 199 198 196 203 201 192 192 204 202 149 156 233 213 147 209 236 182 170 209 214 212 194 177 180 182 187 193 195 198 204 211
208 231 193 181 190 212 220 215 204 203 198 188 189 196 195 197 196 192 195 196 190 186 182 188 199 204 199 187 192 199 184 194 212 214 209 169 134 117 137 166 212 193 166 154 169 153 133 223 220 211 224 234 226 262 296 322 200 204 196 199 202 197 199 204 208 204 163 190 239 200 154 214 239 168 171 201 205 208 201 194 202 201 198 202 204 208 214 219
221 259 225 196 200 210 213 205 196 202 203 186 191 207 199 201 207 199 180 168 187 190 190 202 212 212 207 193 186 189 191 199 212 214 202 173 163 156 149 188 216 197 174 163 186 175 169 220 215 196 213 224 216 230 280 0 322 249 210 205 203 202 205 204 208 214 203 216 243 227 184 239 245 151 171 198 204 210 204 196 202 204 207 214 216 219 225 229
238 254 247 213 229 273 232 199 187 197 212 198 197 205 202 205 206 199 179 172 184 192 193 209 219 206 197 197 195 208 212 206 212 212 184 171 179 182 188 190 169 175 180 181 201 190 189 213 193 180 214 224 208 207 226 240 282 291 264 244 222 203 198 199 210 215 213 232 247 255 276 271 243 142 163 198 197 198 195 185 191 202 214 219 218 222 232 239
251 259 265 252 241 222 207 201 182 192 212 209 206 205 206 211 204 196 193 192 194 191 189 207 218 195 181 199 207 219 222 212 216 214 183 185 191 185 196 182 144 156 182 189 187 181 192 216 145 170 213 221 199 190 185 180 280 285 268 258 240 199 182 201 206 194 196 221 239 246 255 260 225 125 162 211 187 183 195 195 197 207 216 222 224 228 237 244
246 255 258 282 298 204 180 41 189 201 209 209 214 215 216 218 204 193 202 203 205 209 203 206 209 188 183 204 211 222 225 215 216 219 195 196 184 157 168 167 157 166 175 176 179 173 180 185 162 185 208 200 167 163 148 128 140 242 247 239 222 203 206 217 214 200 197 203 213 222 235 249 210 115 161 212 189 190 207 212 220 230 232 233 236 237 244 250